FW8019 Weather Reports


time (UTC)temp
C
wind
direction
speed
KPH
gust
KPH
rain 1hr
cm
rain 24hr
cm
rain mn
cm
humidity
%
barometer
mb
20260509161717 24 184 0.0 0.0 0.00 0.00 0.00 86 1012.5
20260509161214 24 188 0.0 1.6 0.00 0.00 0.00 85 1012.3
20260509160709 24 166 0.0 0.0 0.00 0.00 0.00 85 1012.2
20260509160206 24 188 1.6 3.2 0.00 0.00 0.00 86 1012.4
20260509155701 24 186 0.0 0.0 0.00 0.00 0.00 87 1012.5
20260509155158 24 180 0.0 0.0 0.00 0.00 0.00 86 1012.3
20260509154654 24 186 0.0 1.6 0.00 0.00 0.00 87 1012.2
20260509154151 23 185 0.0 0.0 0.00 0.00 0.00 87 1012.4
20260509153648 24 181 0.0 0.0 0.00 0.00 0.00 87 1012.4
20260509153145 23 170 1.6 1.6 0.00 0.00 0.00 88 1012.4
20260509152640 23 178 1.6 1.6 0.00 0.00 0.00 89 1012.8
20260509152138 23 176 0.0 1.6 0.00 0.00 0.00 90 1012.7
20260509151634 23 174 0.0 0.0 0.00 0.00 0.00 91 1012.8
20260509151131 23 180 0.0 0.0 0.00 0.00 0.00 92 1013.1
20260509150629 22 168 0.0 0.0 0.00 0.00 0.00 92 1013.0
20260509150127 22 170 0.0 0.0 0.00 0.00 0.00 92 1013.2
20260509145623 22 170 0.0 0.0 0.00 0.00 0.00 92 1013.1
20260509145118 22 170 0.0 0.0 0.00 0.00 0.00 92 1013.1
20260509144615 22 170 0.0 0.0 0.00 0.00 0.00 92 1012.9
20260509144112 22 169 0.0 0.0 0.00 0.00 0.00 92 1013.0
20260509143609 22 180 0.0 0.0 0.00 0.00 0.00 91 1013.1
20260509143107 22 180 0.0 0.0 0.00 0.00 0.00 91 1012.9
20260509142602 23 165 0.0 0.0 0.00 0.00 0.00 92 1012.6
20260509142058 22 166 0.0 0.0 0.00 0.00 0.00 91 1012.7
20260509141555 22 148 0.0 0.0 0.00 0.00 0.00 91 1012.7
20260509141051 22 149 0.0 0.0 0.00 0.00 0.00 91 1012.6
20260509140548 22 149 0.0 0.0 0.00 0.00 0.00 91 1012.5
20260509140046 22 149 0.0 0.0 0.00 0.00 0.00 91 1012.6
20260509135543 22 149 0.0 0.0 0.00 0.00 0.00 91 1012.5
20260509135041 22 149 0.0 0.0 0.00 0.00 0.00 91 1012.4
20260509134538 22 149 0.0 0.0 0.00 0.00 0.00 91 1012.5
20260509134035 22 149 0.0 0.0 0.00 0.00 0.00 91 1012.6
20260509133532 22 149 0.0 0.0 0.00 0.00 0.00 91 1012.6
20260509133030 22 149 0.0 0.0 0.00 0.00 0.00 91 1012.6
20260509132528 22 149 0.0 0.0 0.00 0.00 0.00 90 1012.8
20260509132026 22 149 0.0 0.0 0.00 0.00 0.00 90 1012.7
20260509131522 22 150 0.0 0.0 0.00 0.00 0.00 90 1012.9
20260509131019 22 150 0.0 0.0 0.00 0.00 0.00 91 1012.8
20260509130514 22 150 0.0 0.0 0.00 0.00 0.00 91 1012.8
20260509130011 22 150 0.0 0.0 0.00 0.00 0.00 91 1012.7
20260509125508 22 150 0.0 0.0 0.00 0.00 0.00 91 1012.9
20260509125004 22 150 0.0 0.0 0.00 0.00 0.00 91 1012.8
20260509124501 21 156 0.0 0.0 0.00 0.00 0.00 91 1013.0
20260509123958 21 138 0.0 0.0 0.00 0.00 0.00 92 1012.9
20260509123456 21 173 0.0 0.0 0.00 0.00 0.00 93 1013.1
20260509122951 21 153 0.0 0.0 0.00 0.00 0.00 94 1013.1
20260509122448 21 159 0.0 0.0 0.00 0.00 0.00 96 1012.7
20260509121945 20 168 0.0 0.0 0.00 0.00 0.00 97 1013.0
20260509121442 20 164 0.0 0.0 0.00 0.00 0.00 98 1013.0
20260509120940 20 161 0.0 0.0 0.00 0.00 0.00 98 1012.8
20260509120438 20 166 0.0 0.0 0.00 0.00 0.00 99 1012.7
20260509115935 19 186 0.0 0.0 0.00 0.00 0.00 99 1012.8
20260509115432 19 186 0.0 0.0 0.00 0.00 0.00 99 1012.7
20260509114930 18 186 0.0 0.0 0.00 0.00 0.00 99 1012.7
20260509114428 18 186 0.0 0.0 0.00 0.00 0.00 99 1012.6
20260509113928 18 186 0.0 0.0 0.00 0.00 0.00 99 1012.5
20260509113424 18 186 0.0 0.0 0.00 0.00 0.00 99 1012.5
20260509112921 18 186 0.0 0.0 0.00 0.00 0.00 99 1012.3
20260509112419 18 186 0.0 0.0 0.00 0.00 0.00 99 1012.4
20260509111915 18 186 0.0 0.0 0.00 0.00 0.00 99 1012.5
20260509111412 18 186 0.0 0.0 0.00 0.00 0.00 99 1012.4
20260509110910 18 186 0.0 0.0 0.00 0.00 0.00 99 1012.3
20260509110405 18 185 0.0 0.0 0.00 0.00 0.00 99 1012.2
20260509105904 18 185 0.0 0.0 0.00 0.00 0.00 98 1012.3
20260509105402 18 185 0.0 0.0 0.00 0.00 0.00 98 1012.2
20260509104859 17 185 0.0 0.0 0.00 0.00 0.00 98 1012.3
20260509104355 17 185 0.0 0.0 0.00 0.00 0.00 98 1012.1
20260509103853 18 185 0.0 0.0 0.00 0.00 0.00 98 1011.9
20260509103350 18 185 0.0 0.0 0.00 0.00 0.00 98 1011.9
20260509102849 18 185 0.0 0.0 0.00 0.00 0.00 98 1011.7
20260509102346 18 184 0.0 0.0 0.00 0.00 0.00 98 1011.8
20260509101841 18 185 0.0 0.0 0.00 0.00 0.00 98 1011.9
20260509101337 18 185 0.0 0.0 0.00 0.00 0.00 98 1011.9
20260509100836 18 185 0.0 0.0 0.00 0.00 0.00 98 1011.6
20260509100333 18 185 0.0 0.0 0.00 0.00 0.00 97 1011.9
20260509095829 18 185 0.0 0.0 0.00 0.00 0.00 97 1011.7
20260509095326 18 185 0.0 0.0 0.00 0.00 0.00 97 1012.0
20260509094824 18 185 0.0 0.0 0.00 0.00 0.00 97 1011.7
20260509094320 18 185 0.0 0.0 0.00 0.00 0.00 97 1011.9
20260509093818 18 185 0.0 0.0 0.00 0.00 0.00 97 1011.8
20260509093315 18 185 0.0 0.0 0.00 0.00 0.00 97 1011.9
20260509092814 18 185 0.0 0.0 0.00 0.00 0.00 97 1011.9
20260509092311 18 185 0.0 0.0 0.00 0.00 0.00 96 1012.1
20260509091809 18 185 0.0 0.0 0.00 0.00 0.00 96 1011.8
20260509091305 18 185 0.0 0.0 0.00 0.00 0.00 96 1012.3
20260509090803 18 185 0.0 0.0 0.00 0.00 0.00 96 1012.0
20260509090259 18 185 0.0 0.0 0.00 0.00 0.00 96 1012.1
20260509085757 18 185 0.0 0.0 0.00 0.00 0.00 96 1012.1
20260509085254 18 185 0.0 0.0 0.00 0.00 0.00 96 1012.3
20260509084751 18 185 0.0 0.0 0.00 0.00 0.00 96 1012.1
20260509084247 18 185 0.0 0.0 0.00 0.00 0.00 96 1012.1
20260509083746 18 185 0.0 0.0 0.00 0.00 0.00 96 1012.3
20260509083242 18 185 0.0 0.0 0.00 0.00 0.00 96 1012.4
20260509082738 18 185 0.0 0.0 0.00 0.00 0.00 96 1012.3
20260509082235 18 185 0.0 0.0 0.00 0.00 0.00 96 1012.3
20260509081732 18 185 0.0 0.0 0.00 0.00 0.00 96 1012.3
20260509081230 18 185 0.0 0.0 0.00 0.00 0.00 95 1012.2
20260509080728 19 185 0.0 0.0 0.00 0.00 0.00 95 1012.4
20260509080225 19 185 0.0 0.0 0.00 0.00 0.00 95 1012.4
20260509075723 19 185 0.0 0.0 0.00 0.00 0.00 95 1012.8
20260509075220 19 185 0.0 0.0 0.00 0.00 0.00 95 1012.5
20260509074717 19 185 0.0 0.0 0.00 0.00 0.00 94 1012.9
20260509074215 19 185 0.0 0.0 0.00 0.00 0.00 94 1013.0
20260509073711 20 185 0.0 0.0 0.00 0.00 0.00 94 1012.7
20260509073207 20 185 0.0 0.0 0.00 0.00 0.00 94 1012.3
20260509072704 20 185 0.0 0.0 0.00 0.00 0.00 94 1012.1
20260509072201 20 185 0.0 0.0 0.00 0.00 0.00 94 1011.7
20260509071657 20 185 0.0 0.0 0.00 0.00 0.00 93 1012.1
20260509071155 20 185 0.0 0.0 0.00 0.00 0.00 93 1012.2
20260509070651 20 186 0.0 0.0 0.00 0.00 0.00 93 1012.1
20260509070148 20 186 0.0 0.0 0.00 0.00 0.00 93 1012.4
20260509065644 20 186 0.0 0.0 0.00 0.00 0.00 93 1012.4
20260509065140 20 186 0.0 0.0 0.00 0.00 0.00 93 1012.7
20260509064637 20 185 0.0 0.0 0.00 0.00 0.00 92 1012.8
20260509064135 20 185 0.0 0.0 0.00 0.00 0.00 92 1012.9
20260509063632 20 185 0.0 0.0 0.00 0.00 0.00 92 1012.9
20260509063128 20 185 0.0 0.0 0.00 0.00 0.00 92 1013.2
20260509062626 20 186 0.0 0.0 0.00 0.00 0.00 92 1013.1
20260509062122 20 184 0.0 0.0 0.00 0.00 0.00 92 1012.8
20260509061619 20 181 0.0 0.0 0.00 0.00 0.00 92 1012.5
20260509061117 20 182 0.0 0.0 0.00 0.00 0.00 91 1012.8
20260509060615 20 182 0.0 0.0 0.00 0.00 0.00 91 1013.3
20260509060110 20 182 0.0 0.0 0.00 0.00 0.00 91 1013.4
20260509055606 20 182 0.0 0.0 0.00 0.00 0.00 90 1013.0
20260509055102 20 182 0.0 0.0 0.00 0.00 0.00 90 1013.2
20260509054559 20 182 0.0 0.0 0.00 0.00 0.00 90 1013.2
20260509054057 19 182 0.0 0.0 0.00 0.00 0.00 90 1013.4
20260509053555 19 181 0.0 0.0 0.00 0.00 0.00 91 1013.4
20260509053051 19 181 0.0 0.0 0.00 0.00 0.00 91 1013.6
20260509052549 19 181 0.0 0.0 0.00 0.00 0.00 91 1014.0
20260509052047 19 181 0.0 0.0 0.00 0.00 0.00 90 1014.0
20260509051545 19 181 0.0 0.0 0.00 0.00 0.00 90 1014.4
20260509051041 19 181 0.0 0.0 0.00 0.00 0.00 89 1014.5
20260509050538 19 181 0.0 0.0 0.00 0.00 0.00 89 1014.5
20260509050035 19 181 0.0 0.0 0.00 0.00 0.00 89 1014.7
20260509045532 19 181 0.0 0.0 0.00 0.00 0.00 89 1014.7
20260509045029 19 181 0.0 0.0 0.00 0.00 0.00 90 1014.7
20260509044527 19 181 0.0 0.0 0.00 0.00 0.00 91 1014.8
20260509044024 18 181 0.0 0.0 0.00 0.00 0.00 91 1014.3
20260509043520 18 181 0.0 0.0 0.00 0.00 0.00 92 1014.2
20260509043016 18 181 0.0 0.0 0.00 0.00 0.00 92 1014.0
20260509042512 18 181 0.0 0.0 0.00 0.00 0.00 92 1014.3
20260509042009 18 181 0.0 0.0 0.00 0.00 0.00 92 1014.5
20260509041505 18 181 0.0 0.0 0.00 0.00 0.00 92 1014.8
20260509041003 18 181 0.0 0.0 0.00 0.00 0.00 92 1014.8
20260509040501 18 181 0.0 0.0 0.00 0.00 0.00 92 1015.3
20260509035957 18 181 0.0 0.0 0.00 0.00 0.00 92 1015.2
20260509035455 18 181 0.0 0.0 0.00 0.00 0.00 91 1015.3
20260509034951 18 181 0.0 0.0 0.00 0.00 0.00 91 1015.4
20260509034449 18 181 0.0 0.0 0.00 0.00 0.00 91 1015.4
20260509033946 18 181 0.0 0.0 0.00 0.00 0.00 91 1015.5
20260509033443 18 181 0.0 0.0 0.00 0.00 0.00 91 1015.3
20260509032939 18 181 0.0 0.0 0.00 0.00 0.00 90 1015.3
20260509032437 18 181 0.0 0.0 0.00 0.00 0.00 90 1015.5
20260509031934 18 181 0.0 0.0 0.00 0.00 0.00 90 1015.4
20260509031432 18 181 0.0 0.0 0.00 0.00 0.00 90 1015.5
20260509030929 18 181 0.0 0.0 0.00 0.00 0.00 90 1015.3
20260509030427 18 181 0.0 0.0 0.00 0.00 0.00 89 1015.4
20260509025924 18 181 0.0 0.0 0.00 0.00 0.00 89 1015.7
20260509025419 18 181 0.0 0.0 0.00 0.00 0.00 88 1015.5
20260509024914 18 181 0.0 0.0 0.00 0.00 0.00 88 1015.4
20260509024411 18 181 0.0 0.0 0.00 0.00 0.00 88 1015.4
20260509023908 18 181 0.0 0.0 0.00 0.00 0.00 87 1015.2
20260509023406 18 181 0.0 0.0 0.00 0.00 0.00 87 1015.1
20260509022902 18 181 0.0 0.0 0.00 0.00 0.00 87 1015.2
20260509022359 18 181 0.0 0.0 0.00 0.00 0.00 87 1015.2
20260509021856 18 181 0.0 0.0 0.00 0.00 0.00 87 1015.1
20260509021353 18 181 0.0 0.0 0.00 0.00 0.00 87 1015.0
20260509020851 18 181 0.0 0.0 0.00 0.00 0.00 86 1015.0
20260509020349 18 181 0.0 0.0 0.00 0.00 0.00 86 1015.1
20260509015846 18 181 0.0 0.0 0.00 0.00 0.00 86 1015.1
20260509015344 18 181 0.0 0.0 0.00 0.00 0.00 86 1015.1
20260509014840 18 181 0.0 0.0 0.00 0.00 0.00 86 1015.0
20260509014337 18 181 0.0 0.0 0.00 0.00 0.00 86 1014.8
20260509013834 18 181 0.0 0.0 0.00 0.00 0.00 86 1015.0
20260509013330 18 181 0.0 0.0 0.00 0.00 0.00 86 1014.9
20260509012826 18 181 0.0 0.0 0.00 0.00 0.00 86 1014.7
20260509012323 18 181 0.0 0.0 0.00 0.00 0.00 86 1014.8
20260509011820 18 181 0.0 0.0 0.00 0.00 0.00 86 1014.8
20260509011312 18 181 0.0 0.0 0.00 0.00 0.00 86 1014.8
20260509010810 18 181 0.0 0.0 0.00 0.00 0.00 85 1015.0
20260509010307 18 181 0.0 0.0 0.00 0.00 0.00 85 1015.2
20260509005804 18 181 0.0 0.0 0.00 0.00 0.00 85 1014.9
20260509005306 18 181 0.0 0.0 0.00 0.00 0.00 84 1014.7
20260509004801 18 181 0.0 0.0 0.00 0.00 0.00 84 1014.5
20260509004258 18 181 0.0 0.0 0.00 0.00 0.00 84 1014.8
20260509003756 18 181 0.0 0.0 0.00 0.00 0.00 84 1014.4
20260509003254 18 181 0.0 0.0 0.00 0.00 0.00 84 1014.4
20260509002751 18 181 0.0 0.0 0.00 0.00 0.00 83 1014.4
20260509002249 18 181 0.0 0.0 0.00 0.00 0.00 83 1014.3
20260509001746 18 181 0.0 0.0 0.00 0.00 0.00 83 1014.4
20260509001241 18 181 0.0 0.0 0.00 0.00 0.00 82 1014.5
20260509000740 19 181 0.0 0.0 0.00 0.00 0.00 82 1014.6
20260509000236 19 182 0.0 0.0 0.00 0.00 0.00 82 1014.4
20260508235734 19 181 0.0 0.0 0.00 0.00 0.00 82 1014.3
20260508235230 19 182 0.0 0.0 0.00 0.00 0.00 82 1014.3
20260508234728 19 181 0.0 0.0 0.00 0.00 0.00 81 1014.1
20260508234224 19 181 0.0 0.0 0.00 0.00 0.00 81 1014.2
20260508233723 19 181 0.0 0.0 0.00 0.00 0.00 81 1014.2
20260508233221 19 181 0.0 0.0 0.00 0.00 0.00 81 1014.0
20260508232718 19 181 0.0 0.0 0.00 0.00 0.00 80 1014.3
20260508232215 19 180 0.0 0.0 0.00 0.00 0.00 80 1014.4
20260508231713 19 180 0.0 0.0 0.00 0.00 0.00 80 1014.5
20260508231209 19 180 0.0 0.0 0.00 0.00 0.00 80 1014.5
20260508230706 19 180 0.0 0.0 0.00 0.00 0.00 79 1014.3
20260508230202 19 180 0.0 0.0 0.00 0.00 0.00 80 1014.3
20260508225700 19 180 0.0 0.0 0.00 0.00 0.00 80 1014.4
20260508225156 19 180 0.0 0.0 0.00 0.00 0.00 80 1014.2
20260508224654 20 179 0.0 0.0 0.00 0.00 0.00 79 1014.2
20260508224151 20 178 0.0 0.0 0.00 0.00 0.00 79 1014.1
20260508223649 20 178 0.0 0.0 0.00 0.00 0.00 79 1014.2
20260508223146 20 172 0.0 0.0 0.00 0.00 0.00 79 1014.0
20260508222643 20 182 0.0 0.0 0.00 0.00 0.00 79 1013.9
20260508222141 20 183 0.0 0.0 0.00 0.00 0.00 78 1014.2
20260508221637 20 182 0.0 0.0 0.00 0.00 0.00 78 1014.3
20260508221132 20 181 0.0 0.0 0.00 0.00 0.00 78 1014.4
20260508220629 20 175 0.0 0.0 0.00 0.00 0.00 77 1014.5
20260508220126 20 164 0.0 0.0 0.00 0.00 0.00 77 1014.1
20260508215622 20 174 0.0 0.0 0.00 0.00 0.00 75 1014.4
20260508215119 20 177 0.0 0.0 0.00 0.00 0.00 77 1014.3
20260508214616 20 177 0.0 0.0 0.00 0.00 0.00 76 1014.3
20260508214113 20 183 0.0 0.0 0.00 0.00 0.00 74 1014.1
20260508213610 20 181 0.0 0.0 0.00 0.00 0.00 75 1014.4
20260508213106 20 182 0.0 0.0 0.00 0.00 0.00 76 1014.4
20260508212603 20 181 0.0 0.0 0.00 0.00 0.00 75 1014.6
20260508212059 20 180 0.0 0.0 0.00 0.00 0.00 76 1014.5
20260508211554 20 177 0.0 0.0 0.00 0.00 0.00 78 1014.6
20260508211051 20 182 0.0 0.0 0.00 0.00 0.00 76 1014.5
20260508210548 20 174 0.0 0.0 0.00 0.00 0.00 77 1014.4
20260508210045 20 180 0.0 0.0 0.00 0.00 0.00 76 1014.3
20260508205542 20 183 0.0 0.0 0.00 0.00 0.00 76 1014.3
20260508205038 20 174 0.0 0.0 0.00 0.00 0.00 75 1014.4
20260508204535 20 171 0.0 0.0 0.00 0.00 0.00 75 1014.4
20260508204031 20 177 0.0 0.0 0.00 0.00 0.00 75 1014.3
20260508203527 20 179 0.0 0.0 0.00 0.00 0.00 74 1014.3
20260508203023 20 124 0.0 0.0 0.00 0.00 0.00 73 1014.2
20260508202520 21 194 0.0 0.0 0.00 0.00 0.00 73 1014.3
20260508202017 20 177 0.0 0.0 0.00 0.00 0.00 74 1014.5
20260508201514 21 222 1.6 3.2 0.00 0.00 0.00 73 1014.8
20260508201011 21 200 0.0 1.6 0.00 0.00 0.00 73 1014.7
20260508200508 21 169 1.6 1.6 0.00 0.00 0.00 72 1014.9
20260508200003 21 191 1.6 1.6 0.00 0.00 0.00 69 1014.9
20260508195500 21 187 1.6 1.6 0.00 0.00 0.00 67 1014.7
20260508194956 22 190 1.6 3.2 0.00 0.00 0.00 68 1015.1
20260508194454 22 199 1.6 3.2 0.00 0.00 0.00 68 1015.3
20260508193950 22 180 1.6 3.2 0.00 0.00 0.00 68 1015.2
20260508193447 22 186 4.8 4.8 0.00 0.00 0.00 67 1014.9
20260508192943 22 188 1.6 1.6 0.00 0.00 0.00 67 1014.9
20260508192440 21 203 3.2 3.2 0.00 0.00 0.00 68 1014.9
20260508191937 22 174 0.0 1.6 0.00 0.00 0.00 66 1015.2
20260508191435 22 184 0.0 0.0 0.00 0.00 0.00 64 1015.2
20260508190931 22 185 0.0 1.6 0.00 0.00 0.00 66 1015.2
20260508190429 22 185 0.0 1.6 0.00 0.00 0.00 68 1015.1
20260508185925 22 220 3.2 3.2 0.00 0.00 0.00 64 1015.2
20260508185422 22 187 0.0 1.6 0.00 0.00 0.00 64 1015.3
20260508184920 22 192 3.2 3.2 0.00 0.00 0.00 65 1015.1
20260508184417 21 206 3.2 3.2 0.00 0.00 0.00 68 1015.4
20260508183913 21 183 1.6 3.2 0.00 0.00 0.00 69 1015.2
20260508183410 22 210 3.2 3.2 0.00 0.00 0.00 65 1015.2
20260508182905 23 187 1.6 1.6 0.00 0.00 0.00 63 1015.1
20260508182403 22 196 0.0 0.0 0.00 0.00 0.00 64 1015.4
20260508181858 22 208 3.2 3.2 0.00 0.00 0.00 65 1015.7
20260508181355 22 185 1.6 1.6 0.00 0.00 0.00 62 1015.7
20260508180852 22 186 1.6 1.6 0.00 0.00 0.00 63 1015.7
20260508180349 22 182 1.6 1.6 0.00 0.00 0.00 65 1015.6
20260508175845 22 203 3.2 3.2 0.00 0.00 0.00 63 1015.7
20260508175341 22 184 3.2 3.2 0.00 0.00 0.00 63 1015.7
20260508174840 22 187 1.6 1.6 0.00 0.00 0.00 62 1015.9
20260508174337 23 192 1.6 1.6 0.00 0.00 0.00 61 1015.6
20260508173833 23 193 1.6 1.6 0.00 0.00 0.00 60 1015.8
20260508173331 22 201 4.8 8.0 0.00 0.00 0.00 60 1015.9
20260508172826 22 196 1.6 3.2 0.00 0.00 0.00 61 1016.0
20260508172323 22 168 1.6 1.6 0.00 0.00 0.00 60 1016.1
20260508171820 23 190 1.6 1.6 0.00 0.00 0.00 59 1016.0
20260508171316 23 207 1.6 3.2 0.00 0.00 0.00 57 1016.1
20260508170813 23 174 1.6 1.6 0.00 0.00 0.00 58 1016.2
20260508170311 23 194 1.6 3.2 0.00 0.00 0.00 60 1015.9
20260508165808 22 186 0.0 1.6 0.00 0.00 0.00 59 1015.9
20260508165306 22 191 1.6 1.6 0.00 0.00 0.00 60 1015.8
20260508164801 22 202 1.6 3.2 0.00 0.00 0.00 58 1016.4
20260508164257 22 181 1.6 3.2 0.00 0.00 0.00 58 1016.3
20260508163755 23 222 1.6 1.6 0.00 0.00 0.00 56 1016.3
20260508163254 22 175 1.6 3.2 0.00 0.00 0.00 57 1016.3
20260508162748 22 169 0.0 0.0 0.00 0.00 0.00 59 1016.4
20260508162246 22 189 1.6 1.6 0.00 0.00 0.00 57 1016.4